Year,Month,Day,Hour,Minute,Value (Times are PST for temperature in C)
2021,06,10,00,00,8.70
2021,06,10,00,01,8.70
2021,06,10,00,02,8.70
2021,06,10,00,03,8.70
2021,06,10,00,04,8.70
2021,06,10,00,05,8.70
2021,06,10,00,06,8.70
2021,06,10,00,07,8.70
2021,06,10,00,08,8.70
2021,06,10,00,09,8.70
2021,06,10,00,10,8.70
2021,06,10,00,11,8.60
2021,06,10,00,12,8.60
2021,06,10,00,13,8.60
2021,06,10,00,14,8.60
2021,06,10,00,15,8.60
2021,06,10,00,16,8.60
2021,06,10,00,17,8.50
2021,06,10,00,18,8.50
2021,06,10,00,19,8.50
2021,06,10,00,20,8.50
2021,06,10,00,21,8.50
2021,06,10,00,22,8.50
2021,06,10,00,23,8.40
2021,06,10,00,24,8.40
2021,06,10,00,25,8.40
2021,06,10,00,26,8.40
2021,06,10,00,27,8.40
2021,06,10,00,28,8.40
2021,06,10,00,29,8.40
2021,06,10,00,30,8.40
2021,06,10,00,31,8.30
2021,06,10,00,32,8.30
2021,06,10,00,33,8.30
2021,06,10,00,34,8.30
2021,06,10,00,35,8.30
2021,06,10,00,36,8.30
2021,06,10,00,37,8.30
2021,06,10,00,38,8.30
2021,06,10,00,39,8.30
2021,06,10,00,40,8.30
2021,06,10,00,41,8.30
2021,06,10,00,42,8.20
2021,06,10,00,43,8.20
2021,06,10,00,44,8.20
2021,06,10,00,45,8.20
2021,06,10,00,46,8.20
2021,06,10,00,47,8.20
2021,06,10,00,48,8.20
2021,06,10,00,49,8.20
2021,06,10,00,50,8.20
2021,06,10,00,51,8.20
2021,06,10,00,52,8.20
2021,06,10,00,53,8.20
2021,06,10,00,54,8.20
2021,06,10,00,55,8.20
2021,06,10,00,56,8.20
2021,06,10,00,57,8.20
2021,06,10,00,58,8.20
2021,06,10,00,59,8.10
2021,06,10,01,00,8.10
2021,06,10,01,01,8.10
2021,06,10,01,02,8.10
2021,06,10,01,03,8.10
2021,06,10,01,04,8.10
2021,06,10,01,05,8.10
2021,06,10,01,06,8.10
2021,06,10,01,07,8.10
2021,06,10,01,08,8.10
2021,06,10,01,09,8.10
2021,06,10,01,10,8.10
2021,06,10,01,11,8.10
2021,06,10,01,12,8.10
2021,06,10,01,13,8.10
2021,06,10,01,14,8.10
2021,06,10,01,15,8.10
2021,06,10,01,16,8.10
2021,06,10,01,17,8.10
2021,06,10,01,18,8.00
2021,06,10,01,19,8.00
2021,06,10,01,20,8.00
2021,06,10,01,21,8.00
2021,06,10,01,22,8.00
2021,06,10,01,23,8.00
2021,06,10,01,24,8.00
2021,06,10,01,25,7.90
2021,06,10,01,26,7.90
2021,06,10,01,27,7.90
2021,06,10,01,28,7.90
2021,06,10,01,29,7.90
2021,06,10,01,30,7.90
2021,06,10,01,31,7.90
2021,06,10,01,32,7.90
2021,06,10,01,33,7.90
2021,06,10,01,34,7.90
2021,06,10,01,35,7.90
2021,06,10,01,36,7.90
2021,06,10,01,37,7.90
2021,06,10,01,38,7.80
2021,06,10,01,39,7.80
2021,06,10,01,40,7.80
2021,06,10,01,41,7.80
2021,06,10,01,42,7.80
2021,06,10,01,43,7.80
2021,06,10,01,44,7.80
2021,06,10,01,45,7.80
2021,06,10,01,46,7.80
2021,06,10,01,47,7.80
2021,06,10,01,48,7.80
2021,06,10,01,49,7.80
2021,06,10,01,50,7.80
2021,06,10,01,51,7.80
2021,06,10,01,52,7.80
2021,06,10,01,53,7.80
2021,06,10,01,54,7.80
2021,06,10,01,55,7.80
2021,06,10,01,56,7.80
2021,06,10,01,57,7.80
2021,06,10,01,58,7.80
2021,06,10,01,59,7.80
2021,06,10,02,00,7.80
2021,06,10,02,01,7.80
2021,06,10,02,02,7.80
2021,06,10,02,03,7.80
2021,06,10,02,04,7.80
2021,06,10,02,05,7.80
2021,06,10,02,06,7.80
2021,06,10,02,07,7.80
2021,06,10,02,08,7.80
2021,06,10,02,09,7.80
2021,06,10,02,10,7.70
2021,06,10,02,11,7.70
2021,06,10,02,12,7.70
2021,06,10,02,13,7.70
2021,06,10,02,14,7.70
2021,06,10,02,15,7.70
2021,06,10,02,16,7.70
2021,06,10,02,17,7.70
2021,06,10,02,18,7.70
2021,06,10,02,19,7.70
2021,06,10,02,20,7.70
2021,06,10,02,21,7.70
2021,06,10,02,22,7.60
2021,06,10,02,23,7.60
2021,06,10,02,24,7.60
2021,06,10,02,25,7.60
2021,06,10,02,26,7.60
2021,06,10,02,27,7.60
2021,06,10,02,28,7.60
2021,06,10,02,29,7.50
2021,06,10,02,30,7.50
2021,06,10,02,31,7.50
2021,06,10,02,32,7.50
2021,06,10,02,33,7.50
2021,06,10,02,34,7.50
2021,06,10,02,35,7.50
2021,06,10,02,36,7.50
2021,06,10,02,37,7.50
2021,06,10,02,38,7.50
2021,06,10,02,39,7.50
2021,06,10,02,40,7.60
2021,06,10,02,41,7.50
2021,06,10,02,42,7.60
2021,06,10,02,43,7.60
2021,06,10,02,44,7.60
2021,06,10,02,45,7.60
2021,06,10,02,46,7.60
2021,06,10,02,47,7.60
2021,06,10,02,48,7.60
2021,06,10,02,49,7.60
2021,06,10,02,50,7.60
2021,06,10,02,51,7.60
2021,06,10,02,52,7.60
2021,06,10,02,53,7.60
2021,06,10,02,54,7.60
2021,06,10,02,55,7.60
2021,06,10,02,56,7.60
2021,06,10,02,57,7.60
2021,06,10,02,58,7.60
2021,06,10,02,59,7.60
2021,06,10,03,00,7.60
2021,06,10,03,01,7.70
2021,06,10,03,02,7.70
2021,06,10,03,03,7.70
2021,06,10,03,04,7.70
2021,06,10,03,05,7.70
2021,06,10,03,06,7.70
2021,06,10,03,07,7.70
2021,06,10,03,08,7.70
2021,06,10,03,09,7.70
2021,06,10,03,10,7.80
2021,06,10,03,11,7.80
2021,06,10,03,12,7.80
2021,06,10,03,13,7.80
2021,06,10,03,14,7.80
2021,06,10,03,15,7.80
2021,06,10,03,16,7.90
2021,06,10,03,17,7.90
2021,06,10,03,18,7.90
2021,06,10,03,19,7.90
2021,06,10,03,20,7.90
2021,06,10,03,21,8.00
2021,06,10,03,22,8.00
2021,06,10,03,23,8.00
2021,06,10,03,24,8.00
2021,06,10,03,25,8.00
2021,06,10,03,26,8.10
2021,06,10,03,27,8.10
2021,06,10,03,28,8.10
2021,06,10,03,29,8.10
2021,06,10,03,30,8.10
2021,06,10,03,31,8.10
2021,06,10,03,32,8.10
2021,06,10,03,33,8.10
2021,06,10,03,34,8.10
2021,06,10,03,35,8.10
2021,06,10,03,36,8.20
2021,06,10,03,37,8.20
2021,06,10,03,38,8.20
2021,06,10,03,39,8.20
2021,06,10,03,40,8.20
2021,06,10,03,41,8.20
2021,06,10,03,42,8.20
2021,06,10,03,43,8.20
2021,06,10,03,44,8.20
2021,06,10,03,45,8.20
2021,06,10,03,46,8.20
2021,06,10,03,47,8.20
2021,06,10,03,48,8.20
2021,06,10,03,49,8.20
2021,06,10,03,50,8.20
2021,06,10,03,51,8.20
2021,06,10,03,52,8.20
2021,06,10,03,53,8.20
2021,06,10,03,54,8.20
2021,06,10,03,55,8.20
2021,06,10,03,56,8.20
2021,06,10,03,57,8.20
2021,06,10,03,58,8.20
2021,06,10,03,59,8.20
2021,06,10,04,00,8.20
2021,06,10,04,01,8.20
2021,06,10,04,02,8.20
2021,06,10,04,03,8.20
2021,06,10,04,04,8.20
2021,06,10,04,05,8.20
2021,06,10,04,06,8.20
2021,06,10,04,07,8.20
2021,06,10,04,08,8.20
2021,06,10,04,09,8.20
2021,06,10,04,10,8.20
2021,06,10,04,11,8.20
2021,06,10,04,12,8.20
2021,06,10,04,13,8.20
2021,06,10,04,14,8.20
2021,06,10,04,15,8.20
2021,06,10,04,16,8.20
2021,06,10,04,17,8.20
2021,06,10,04,18,8.20
2021,06,10,04,19,8.20
2021,06,10,04,20,8.20
2021,06,10,04,21,8.20
2021,06,10,04,22,8.30
2021,06,10,04,23,8.30
2021,06,10,04,24,8.30
2021,06,10,04,25,8.30
2021,06,10,04,26,8.30
2021,06,10,04,27,8.30
2021,06,10,04,28,8.30
2021,06,10,04,29,8.30
2021,06,10,04,30,8.30
2021,06,10,04,31,8.30
2021,06,10,04,32,8.30
2021,06,10,04,33,8.40
2021,06,10,04,34,8.40
2021,06,10,04,35,8.40
2021,06,10,04,36,8.40
2021,06,10,04,37,8.40
2021,06,10,04,38,8.40
2021,06,10,04,39,8.40
2021,06,10,04,40,8.40
2021,06,10,04,41,8.40
2021,06,10,04,42,8.50
2021,06,10,04,43,8.50
2021,06,10,04,44,8.50
2021,06,10,04,45,8.50
2021,06,10,04,46,8.50
2021,06,10,04,47,8.50
2021,06,10,04,48,8.60
2021,06,10,04,49,8.60
2021,06,10,04,50,8.60
2021,06,10,04,51,8.60
2021,06,10,04,52,8.60
2021,06,10,04,53,8.70
2021,06,10,04,54,8.70
2021,06,10,04,55,8.70
2021,06,10,04,56,8.70
2021,06,10,04,57,8.70
2021,06,10,04,58,8.70
2021,06,10,04,59,8.80
2021,06,10,05,00,8.80
2021,06,10,05,01,8.80
2021,06,10,05,02,8.90
2021,06,10,05,03,8.90
2021,06,10,05,04,8.90
2021,06,10,05,05,9.00
2021,06,10,05,06,9.00
2021,06,10,05,07,9.10
2021,06,10,05,08,9.10
2021,06,10,05,09,9.20
2021,06,10,05,10,9.20
2021,06,10,05,11,9.30
2021,06,10,05,12,9.30
2021,06,10,05,13,9.30
2021,06,10,05,14,9.30
2021,06,10,05,15,9.30
2021,06,10,05,16,9.40
2021,06,10,05,17,9.40
2021,06,10,05,18,9.40
2021,06,10,05,19,9.40
2021,06,10,05,20,9.40
2021,06,10,05,21,9.40
2021,06,10,05,22,9.40
2021,06,10,05,23,9.40
2021,06,10,05,24,9.40
2021,06,10,05,25,9.40
2021,06,10,05,26,9.40
2021,06,10,05,27,9.40
2021,06,10,05,28,9.40
2021,06,10,05,29,9.40
2021,06,10,05,30,9.40
2021,06,10,05,31,9.40
2021,06,10,05,32,9.50
2021,06,10,05,33,9.50
2021,06,10,05,34,9.60
2021,06,10,05,35,9.60
2021,06,10,05,36,9.70
2021,06,10,05,37,9.70
2021,06,10,05,38,9.70
2021,06,10,05,39,9.70
2021,06,10,05,40,9.70
2021,06,10,05,41,9.80
2021,06,10,05,42,9.80
2021,06,10,05,43,9.80
2021,06,10,05,44,9.80
2021,06,10,05,45,9.90
2021,06,10,05,46,9.90
2021,06,10,05,47,9.90
2021,06,10,05,48,9.90
2021,06,10,05,49,9.90
2021,06,10,05,50,9.90
2021,06,10,05,51,10.00
2021,06,10,05,52,9.90
2021,06,10,05,53,10.00
2021,06,10,05,54,10.00
2021,06,10,05,55,10.00
2021,06,10,05,56,10.00
2021,06,10,05,57,10.10
2021,06,10,05,58,10.00
2021,06,10,05,59,10.00
2021,06,10,06,00,10.00
2021,06,10,06,01,10.10
2021,06,10,06,02,10.00
2021,06,10,06,03,10.00
2021,06,10,06,04,10.00
2021,06,10,06,05,10.00
2021,06,10,06,06,10.00
2021,06,10,06,07,10.00
2021,06,10,06,08,10.00
2021,06,10,06,09,10.00
2021,06,10,06,10,10.00
2021,06,10,06,11,10.00
2021,06,10,06,12,10.00
2021,06,10,06,13,10.00
2021,06,10,06,14,10.00
2021,06,10,06,15,9.90
2021,06,10,06,16,9.90
2021,06,10,06,17,9.90
2021,06,10,06,18,9.90
2021,06,10,06,19,9.90
2021,06,10,06,20,9.90
2021,06,10,06,21,9.90
2021,06,10,06,22,9.90
2021,06,10,06,23,9.90
2021,06,10,06,24,9.90
2021,06,10,06,25,9.90
2021,06,10,06,26,9.90
2021,06,10,06,27,9.90
2021,06,10,06,28,9.90
2021,06,10,06,29,9.90
2021,06,10,06,30,9.90
2021,06,10,06,31,9.90
2021,06,10,06,32,9.90
2021,06,10,06,33,9.90
2021,06,10,06,34,9.90
2021,06,10,06,35,9.90
2021,06,10,06,36,9.90
2021,06,10,06,37,9.90
2021,06,10,06,38,9.90
2021,06,10,06,39,10.00
2021,06,10,06,40,10.00
2021,06,10,06,41,10.00
2021,06,10,06,42,10.10
2021,06,10,06,43,10.10
2021,06,10,06,44,10.10
2021,06,10,06,45,10.20
2021,06,10,06,46,10.20
2021,06,10,06,47,10.30
2021,06,10,06,48,10.30
2021,06,10,06,49,10.30
2021,06,10,06,50,10.40
2021,06,10,06,51,10.40
2021,06,10,06,52,10.50
2021,06,10,06,53,10.50
2021,06,10,06,54,10.60
2021,06,10,06,55,10.60
2021,06,10,06,56,10.60
2021,06,10,06,57,10.60
2021,06,10,06,58,10.70
2021,06,10,06,59,10.70
2021,06,10,07,00,10.70
2021,06,10,07,01,10.80
2021,06,10,07,02,10.80
2021,06,10,07,03,10.80
2021,06,10,07,04,10.90
2021,06,10,07,05,10.90
2021,06,10,07,06,11.00
2021,06,10,07,07,11.10
2021,06,10,07,08,11.10
2021,06,10,07,09,11.20
2021,06,10,07,10,11.30
2021,06,10,07,11,11.30
2021,06,10,07,12,11.40
2021,06,10,07,13,11.50
2021,06,10,07,14,11.60
2021,06,10,07,15,11.60
2021,06,10,07,16,11.70
2021,06,10,07,17,11.80
2021,06,10,07,18,11.80
2021,06,10,07,19,11.90
2021,06,10,07,20,12.00
2021,06,10,07,21,12.00
2021,06,10,07,22,12.10
2021,06,10,07,23,12.10
2021,06,10,07,24,12.20
2021,06,10,07,25,12.20
2021,06,10,07,26,12.30
2021,06,10,07,27,12.30
2021,06,10,07,28,12.30
2021,06,10,07,29,12.30
2021,06,10,07,30,12.30
2021,06,10,07,31,12.30
2021,06,10,07,32,12.30
2021,06,10,07,33,12.30
2021,06,10,07,34,12.30
2021,06,10,07,35,12.30
2021,06,10,07,36,12.30
2021,06,10,07,37,12.30
2021,06,10,07,38,12.30
2021,06,10,07,39,12.30
2021,06,10,07,40,12.20
2021,06,10,07,41,12.20
2021,06,10,07,42,12.20
2021,06,10,07,43,12.20
2021,06,10,07,44,12.20
2021,06,10,07,45,12.20
2021,06,10,07,46,12.20
2021,06,10,07,47,12.20
2021,06,10,07,48,12.20
2021,06,10,07,49,12.10
2021,06,10,07,50,12.10
2021,06,10,07,51,12.10
2021,06,10,07,52,12.10
2021,06,10,07,53,12.10
2021,06,10,07,54,12.10
2021,06,10,07,55,12.10
2021,06,10,07,56,12.00
2021,06,10,07,57,12.00
2021,06,10,07,58,12.00
2021,06,10,07,59,12.00
2021,06,10,08,00,12.00
2021,06,10,08,01,11.90
2021,06,10,08,02,11.90
2021,06,10,08,03,11.90
2021,06,10,08,04,11.80
2021,06,10,08,05,11.80
2021,06,10,08,06,11.80
2021,06,10,08,07,11.80
2021,06,10,08,08,11.70
2021,06,10,08,09,11.80
2021,06,10,08,10,11.80
2021,06,10,08,11,11.80
2021,06,10,08,12,11.80
2021,06,10,08,13,11.90
2021,06,10,08,14,11.90
2021,06,10,08,15,11.90
2021,06,10,08,16,12.00
2021,06,10,08,17,12.00
2021,06,10,08,18,12.10
2021,06,10,08,19,12.10
2021,06,10,08,20,12.20
2021,06,10,08,21,12.20
2021,06,10,08,22,12.30
2021,06,10,08,23,12.30
2021,06,10,08,24,12.30
2021,06,10,08,25,12.40
2021,06,10,08,26,12.40
2021,06,10,08,27,12.50
2021,06,10,08,28,12.50
2021,06,10,08,29,12.60
2021,06,10,08,30,12.60
2021,06,10,08,31,12.60
2021,06,10,08,32,12.70
2021,06,10,08,33,12.70
2021,06,10,08,34,12.70
2021,06,10,08,35,12.70
2021,06,10,08,36,12.80
2021,06,10,08,37,12.80
2021,06,10,08,38,12.80
2021,06,10,08,39,12.80
2021,06,10,08,40,12.80
2021,06,10,08,41,12.90
2021,06,10,08,42,12.90
2021,06,10,08,43,12.90
2021,06,10,08,44,12.90
2021,06,10,08,45,12.90
2021,06,10,08,46,12.90
2021,06,10,08,47,12.90
2021,06,10,08,48,13.00
2021,06,10,08,49,13.00
2021,06,10,08,50,13.00
2021,06,10,08,51,13.10
2021,06,10,08,52,13.10
2021,06,10,08,53,13.10
2021,06,10,08,54,13.20
2021,06,10,08,55,13.20
2021,06,10,08,56,13.20
2021,06,10,08,57,13.20
2021,06,10,08,58,13.30
2021,06,10,08,59,13.30
2021,06,10,09,00,13.40
2021,06,10,09,01,13.40
2021,06,10,09,02,13.50
2021,06,10,09,03,13.50
2021,06,10,09,04,13.60
2021,06,10,09,05,13.60
2021,06,10,09,06,13.70
2021,06,10,09,07,13.70
2021,06,10,09,08,13.70
2021,06,10,09,09,13.80
2021,06,10,09,10,13.80
2021,06,10,09,11,13.90
2021,06,10,09,12,13.90
2021,06,10,09,13,14.00
2021,06,10,09,14,14.10
2021,06,10,09,15,14.10
2021,06,10,09,16,14.20
2021,06,10,09,17,14.20
2021,06,10,09,18,14.30
2021,06,10,09,19,14.30
2021,06,10,09,20,14.40
2021,06,10,09,21,14.40
2021,06,10,09,22,14.50
2021,06,10,09,23,14.70
2021,06,10,09,24,14.80
2021,06,10,09,25,14.80
2021,06,10,09,26,15.00
2021,06,10,09,27,15.10
2021,06,10,09,28,15.20
2021,06,10,09,29,15.30
2021,06,10,09,30,15.30
2021,06,10,09,31,15.40
2021,06,10,09,32,15.40
2021,06,10,09,33,15.50
2021,06,10,09,34,15.50
2021,06,10,09,35,15.60
2021,06,10,09,36,15.60
2021,06,10,09,37,15.70
2021,06,10,09,38,15.70
2021,06,10,09,39,15.80
2021,06,10,09,40,15.90
2021,06,10,09,41,15.90
2021,06,10,09,42,16.00
2021,06,10,09,43,16.10
2021,06,10,09,44,16.10
2021,06,10,09,45,16.10
2021,06,10,09,46,16.10
2021,06,10,09,47,16.10
2021,06,10,09,48,16.00
2021,06,10,09,49,16.00
2021,06,10,09,50,15.90
2021,06,10,09,51,15.90
2021,06,10,09,52,15.90
2021,06,10,09,53,15.90
2021,06,10,09,54,15.90
2021,06,10,09,55,16.00
2021,06,10,09,56,16.00
2021,06,10,09,57,16.00
2021,06,10,09,58,16.00
2021,06,10,09,59,16.00
2021,06,10,10,00,16.00
2021,06,10,10,01,15.90
2021,06,10,10,02,15.90
2021,06,10,10,03,15.80
2021,06,10,10,04,15.70
2021,06,10,10,05,15.70
2021,06,10,10,06,15.70
2021,06,10,10,07,15.60
2021,06,10,10,08,15.60
2021,06,10,10,09,15.60
2021,06,10,10,10,15.60
2021,06,10,10,11,15.60
2021,06,10,10,12,15.70
2021,06,10,10,13,15.60
2021,06,10,10,14,15.60
2021,06,10,10,15,15.50
2021,06,10,10,16,15.50
2021,06,10,10,17,15.50
2021,06,10,10,18,15.40
2021,06,10,10,19,15.40
2021,06,10,10,20,15.40
2021,06,10,10,21,15.30
2021,06,10,10,22,15.30
2021,06,10,10,23,15.30
2021,06,10,10,24,15.30
2021,06,10,10,25,15.40
2021,06,10,10,26,15.50
2021,06,10,10,27,15.60
2021,06,10,10,28,15.70
2021,06,10,10,29,15.80
2021,06,10,10,30,16.00
2021,06,10,10,31,16.10
2021,06,10,10,32,16.10
2021,06,10,10,33,16.30
2021,06,10,10,34,16.30
2021,06,10,10,35,16.40
2021,06,10,10,36,16.50
2021,06,10,10,37,16.50
2021,06,10,10,38,16.50
2021,06,10,10,39,16.50
2021,06,10,10,40,16.40
2021,06,10,10,41,16.40
2021,06,10,10,42,16.30
2021,06,10,10,43,16.20
2021,06,10,10,44,16.10
2021,06,10,10,45,16.00
2021,06,10,10,46,15.90
2021,06,10,10,47,15.80
2021,06,10,10,48,15.80
2021,06,10,10,49,15.70
2021,06,10,10,50,15.60
2021,06,10,10,51,15.60
2021,06,10,10,52,15.50
2021,06,10,10,53,15.40
2021,06,10,10,54,15.40
2021,06,10,10,55,15.40
2021,06,10,10,56,15.40
2021,06,10,10,57,15.40
2021,06,10,10,58,15.40
2021,06,10,10,59,15.40
2021,06,10,11,00,15.40
2021,06,10,11,01,15.50
2021,06,10,11,02,15.50
2021,06,10,11,03,15.50
2021,06,10,11,04,15.60
2021,06,10,11,05,15.60
2021,06,10,11,06,15.60
2021,06,10,11,07,15.60
2021,06,10,11,08,15.60
2021,06,10,11,09,15.60
2021,06,10,11,10,15.60
2021,06,10,11,11,15.60
2021,06,10,11,12,15.60
2021,06,10,11,13,15.60
2021,06,10,11,14,15.60
2021,06,10,11,15,15.60
2021,06,10,11,16,15.60
2021,06,10,11,17,15.70
2021,06,10,11,18,15.70
2021,06,10,11,19,15.70
2021,06,10,11,20,15.70
2021,06,10,11,21,15.80
2021,06,10,11,22,15.80
2021,06,10,11,23,15.80
2021,06,10,11,24,15.80
2021,06,10,11,25,15.70
2021,06,10,11,26,15.70
2021,06,10,11,27,15.60
2021,06,10,11,28,15.60
2021,06,10,11,29,15.60
2021,06,10,11,30,15.60
2021,06,10,11,31,15.60
2021,06,10,11,32,15.60
2021,06,10,11,33,15.60
2021,06,10,11,34,15.60
2021,06,10,11,35,15.60
2021,06,10,11,36,15.60
2021,06,10,11,37,15.60
2021,06,10,11,38,15.60
2021,06,10,11,39,15.70
2021,06,10,11,40,15.70
2021,06,10,11,41,15.80
2021,06,10,11,42,15.80
2021,06,10,11,43,15.90
2021,06,10,11,44,16.00
2021,06,10,11,45,16.10
2021,06,10,11,46,16.10
2021,06,10,11,47,16.20
2021,06,10,11,48,16.20
2021,06,10,11,49,16.20
2021,06,10,11,50,16.30
2021,06,10,11,51,16.30
2021,06,10,11,52,16.30
2021,06,10,11,53,16.40
2021,06,10,11,54,16.40
2021,06,10,11,55,16.30
2021,06,10,11,56,16.20
2021,06,10,11,57,16.20
2021,06,10,11,58,16.10
2021,06,10,11,59,16.00
2021,06,10,12,00,15.90
2021,06,10,12,01,15.70
2021,06,10,12,02,15.60
2021,06,10,12,03,15.50
2021,06,10,12,04,15.40
2021,06,10,12,05,15.40
2021,06,10,12,06,15.30
2021,06,10,12,07,15.30
2021,06,10,12,08,15.30
2021,06,10,12,09,15.30
2021,06,10,12,10,15.30
2021,06,10,12,11,15.30
2021,06,10,12,12,15.30
2021,06,10,12,13,15.30
2021,06,10,12,14,15.30
2021,06,10,12,15,15.30
2021,06,10,12,16,15.20
2021,06,10,12,17,15.20
2021,06,10,12,18,15.20
2021,06,10,12,19,15.20
2021,06,10,12,20,15.20
2021,06,10,12,21,15.20
2021,06,10,12,22,15.20
2021,06,10,12,23,15.20
2021,06,10,12,24,15.20
2021,06,10,12,25,15.20
2021,06,10,12,26,15.30
2021,06,10,12,27,15.30
2021,06,10,12,28,15.30
2021,06,10,12,29,15.40
2021,06,10,12,30,15.40
2021,06,10,12,31,15.30
2021,06,10,12,32,15.30
2021,06,10,12,33,15.30
2021,06,10,12,34,15.20
2021,06,10,12,35,15.20
2021,06,10,12,36,15.20
2021,06,10,12,37,15.20
2021,06,10,12,38,15.10
2021,06,10,12,39,15.10
2021,06,10,12,40,15.10
2021,06,10,12,41,15.10
2021,06,10,12,42,15.10
2021,06,10,12,43,15.10
2021,06,10,12,44,15.10
2021,06,10,12,45,15.10
2021,06,10,12,46,15.10
2021,06,10,12,47,15.10
2021,06,10,12,48,15.10
2021,06,10,12,49,15.10
2021,06,10,12,50,15.00
2021,06,10,12,51,15.00
2021,06,10,12,52,15.00
2021,06,10,12,53,15.00
2021,06,10,12,54,15.00
2021,06,10,12,55,15.00
2021,06,10,12,56,15.00
2021,06,10,12,57,15.00
2021,06,10,12,58,15.10
2021,06,10,12,59,15.10
2021,06,10,13,00,15.10
2021,06,10,13,01,15.10
2021,06,10,13,02,15.20
2021,06,10,13,03,15.20
2021,06,10,13,04,15.20
2021,06,10,13,05,15.20
2021,06,10,13,06,15.20
2021,06,10,13,07,15.20
2021,06,10,13,08,15.20
2021,06,10,13,09,15.20
2021,06,10,13,10,15.20
2021,06,10,13,11,15.20
2021,06,10,13,12,15.30
2021,06,10,13,13,15.30
2021,06,10,13,14,15.30
2021,06,10,13,15,15.40
2021,06,10,13,16,15.40
2021,06,10,13,17,15.40
2021,06,10,13,18,15.40
2021,06,10,13,19,15.40
2021,06,10,13,20,15.40
2021,06,10,13,21,15.40
2021,06,10,13,22,15.40
2021,06,10,13,23,15.40
2021,06,10,13,24,15.50
2021,06,10,13,25,15.60
2021,06,10,13,26,15.70
2021,06,10,13,27,15.80
2021,06,10,13,28,15.80
2021,06,10,13,29,15.90
2021,06,10,13,30,15.90
2021,06,10,13,31,16.00
2021,06,10,13,32,16.00
2021,06,10,13,33,16.00
2021,06,10,13,34,16.10
2021,06,10,13,35,16.10
2021,06,10,13,36,16.20
2021,06,10,13,37,16.30
2021,06,10,13,38,16.30
2021,06,10,13,39,16.40
2021,06,10,13,40,16.50
2021,06,10,13,41,16.60
2021,06,10,13,42,16.70
2021,06,10,13,43,16.80
2021,06,10,13,44,16.90
2021,06,10,13,45,17.00
2021,06,10,13,46,17.10
2021,06,10,13,47,17.10
2021,06,10,13,48,17.20
2021,06,10,13,49,17.20
2021,06,10,13,50,17.30
2021,06,10,13,51,17.30
2021,06,10,13,52,17.20
2021,06,10,13,53,17.10
2021,06,10,13,54,17.00
2021,06,10,13,55,16.80
2021,06,10,13,56,16.70
2021,06,10,13,57,16.70
2021,06,10,13,58,16.70
2021,06,10,13,59,16.70
2021,06,10,14,00,16.70
2021,06,10,14,01,16.70
2021,06,10,14,02,16.80
2021,06,10,14,03,16.80
2021,06,10,14,04,16.90
2021,06,10,14,05,16.90
2021,06,10,14,06,17.00
2021,06,10,14,07,17.00
2021,06,10,14,08,17.00
2021,06,10,14,09,17.10
2021,06,10,14,10,17.10
2021,06,10,14,11,17.10
2021,06,10,14,12,17.10
2021,06,10,14,13,17.20
2021,06,10,14,14,17.30
2021,06,10,14,15,17.40
2021,06,10,14,16,17.40
2021,06,10,14,17,17.50
2021,06,10,14,18,17.40
2021,06,10,14,19,17.30
2021,06,10,14,20,17.20
2021,06,10,14,21,17.10
2021,06,10,14,22,17.00
2021,06,10,14,23,17.00
2021,06,10,14,24,16.90
2021,06,10,14,25,16.90
2021,06,10,14,26,16.90
2021,06,10,14,27,16.80
2021,06,10,14,28,16.80
2021,06,10,14,29,16.80
2021,06,10,14,30,16.70
2021,06,10,14,31,16.70
2021,06,10,14,32,16.60
2021,06,10,14,33,16.60
2021,06,10,14,34,16.60
2021,06,10,14,35,16.50
2021,06,10,14,36,16.50
2021,06,10,14,37,16.40
2021,06,10,14,38,16.30
2021,06,10,14,39,16.30
2021,06,10,14,40,16.20
2021,06,10,14,41,16.20
2021,06,10,14,42,16.10
2021,06,10,14,43,16.10
2021,06,10,14,44,16.10
2021,06,10,14,45,16.10
2021,06,10,14,46,16.10
2021,06,10,14,47,16.10
2021,06,10,14,48,16.20
2021,06,10,14,49,16.20
2021,06,10,14,50,16.30
2021,06,10,14,51,16.30
2021,06,10,14,52,16.30
2021,06,10,14,53,16.40
2021,06,10,14,54,16.40
2021,06,10,14,55,16.50
2021,06,10,14,56,16.60
2021,06,10,14,57,16.60
2021,06,10,14,58,16.70
2021,06,10,14,59,16.80
2021,06,10,15,00,16.80
2021,06,10,15,01,16.80
2021,06,10,15,02,16.80
2021,06,10,15,03,16.80
2021,06,10,15,04,16.70
2021,06,10,15,05,16.60
2021,06,10,15,06,16.60
2021,06,10,15,07,16.50
2021,06,10,15,08,16.40
2021,06,10,15,09,16.40
2021,06,10,15,10,16.30
2021,06,10,15,11,16.20
2021,06,10,15,12,16.10
2021,06,10,15,13,16.10
2021,06,10,15,14,16.10
2021,06,10,15,15,16.10
2021,06,10,15,16,16.10
2021,06,10,15,17,16.20
2021,06,10,15,18,16.30
2021,06,10,15,19,16.40
2021,06,10,15,20,16.50
2021,06,10,15,21,16.60
2021,06,10,15,22,16.70
2021,06,10,15,23,16.70
2021,06,10,15,24,16.80
2021,06,10,15,25,16.80
2021,06,10,15,26,16.80
2021,06,10,15,27,16.80
2021,06,10,15,28,16.80
2021,06,10,15,29,16.80
2021,06,10,15,30,16.90
2021,06,10,15,31,16.90
2021,06,10,15,32,17.00
2021,06,10,15,33,17.00
2021,06,10,15,34,17.10
2021,06,10,15,35,17.10
2021,06,10,15,36,17.20
2021,06,10,15,37,17.20
2021,06,10,15,38,17.30
2021,06,10,15,39,17.30
2021,06,10,15,40,17.30
2021,06,10,15,41,17.30
2021,06,10,15,42,17.30
2021,06,10,15,43,17.30
2021,06,10,15,44,17.30
2021,06,10,15,45,17.20
2021,06,10,15,46,17.20
2021,06,10,15,47,17.20
2021,06,10,15,48,17.30
2021,06,10,15,49,17.30
2021,06,10,15,50,17.30
2021,06,10,15,51,17.30
2021,06,10,15,52,17.30
2021,06,10,15,53,17.40
2021,06,10,15,54,17.30
2021,06,10,15,55,17.30
2021,06,10,15,56,17.30
2021,06,10,15,57,17.30
2021,06,10,15,58,17.20
2021,06,10,15,59,17.20
2021,06,10,16,00,17.20
2021,06,10,16,01,17.20
2021,06,10,16,02,17.20
2021,06,10,16,03,17.20
2021,06,10,16,04,17.20
2021,06,10,16,05,17.20
2021,06,10,16,06,17.20
2021,06,10,16,07,17.30
2021,06,10,16,08,17.30
2021,06,10,16,09,17.30
2021,06,10,16,10,17.30
2021,06,10,16,11,17.30
2021,06,10,16,12,17.30
2021,06,10,16,13,17.30
2021,06,10,16,14,17.30
2021,06,10,16,15,17.30
2021,06,10,16,16,17.30
2021,06,10,16,17,17.30
2021,06,10,16,18,17.30
2021,06,10,16,19,17.20
2021,06,10,16,20,17.20
2021,06,10,16,21,17.20
2021,06,10,16,22,17.20
2021,06,10,16,23,17.20
2021,06,10,16,24,17.10
2021,06,10,16,25,17.10
2021,06,10,16,26,17.10
2021,06,10,16,27,17.10
2021,06,10,16,28,17.10
2021,06,10,16,29,17.10
2021,06,10,16,30,17.10
2021,06,10,16,31,17.10
2021,06,10,16,32,17.20
2021,06,10,16,33,17.20
2021,06,10,16,34,17.30
2021,06,10,16,35,17.30
2021,06,10,16,36,17.30
2021,06,10,16,37,17.30
2021,06,10,16,38,17.30
2021,06,10,16,39,17.20
2021,06,10,16,40,17.20
2021,06,10,16,41,17.10
2021,06,10,16,42,17.10
2021,06,10,16,43,17.10
2021,06,10,16,44,17.10
2021,06,10,16,45,17.10
2021,06,10,16,46,17.10
2021,06,10,16,47,17.10
2021,06,10,16,48,17.10
2021,06,10,16,49,17.10
2021,06,10,16,50,17.10
2021,06,10,16,51,17.10
2021,06,10,16,52,17.00
2021,06,10,16,53,17.00
2021,06,10,16,54,17.00
2021,06,10,16,55,17.00
2021,06,10,16,56,17.00
2021,06,10,16,57,17.10
2021,06,10,16,58,17.10
2021,06,10,16,59,17.20
2021,06,10,17,00,17.20
2021,06,10,17,01,17.20
2021,06,10,17,02,17.30
2021,06,10,17,03,17.30
2021,06,10,17,04,17.30
2021,06,10,17,05,17.30
2021,06,10,17,06,17.20
2021,06,10,17,07,17.20
2021,06,10,17,08,17.20
2021,06,10,17,09,17.20
2021,06,10,17,10,17.20
2021,06,10,17,11,17.20
2021,06,10,17,12,17.20
2021,06,10,17,13,17.30
2021,06,10,17,14,17.30
2021,06,10,17,15,17.40
2021,06,10,17,16,17.50
2021,06,10,17,17,17.50
2021,06,10,17,18,17.60
2021,06,10,17,19,17.60
2021,06,10,17,20,17.60
2021,06,10,17,21,17.60
2021,06,10,17,22,17.60
2021,06,10,17,23,17.60
2021,06,10,17,24,17.50
2021,06,10,17,25,17.50
2021,06,10,17,26,17.50
2021,06,10,17,27,17.40
2021,06,10,17,28,17.40
2021,06,10,17,29,17.40
2021,06,10,17,30,17.40
2021,06,10,17,31,17.40
2021,06,10,17,32,17.40
2021,06,10,17,33,17.40
2021,06,10,17,34,17.40
2021,06,10,17,35,17.40